| time (UTC) | temp C | wind direction | speed KPH | gust KPH | rain 1hr cm | rain 24hr cm | rain mn cm | humidity % | barometer mb |
| 20260506084517 | 9 | 55 | 0.0 | 3.2 | 0.00 | 0.00 | 0.00 | 90 | 1019.6 |
| 20260506083507 | 9 | 32 | 3.2 | 4.8 | 0.00 | 0.00 | 0.00 | 89 | 1019.4 |
| 20260506083019 | 9 | 58 | 1.6 | 3.2 | 0.00 | 0.00 | 0.00 | 89 | 1019.4 |
| 20260506082511 | 10 | 52 | 0.0 | 3.2 | 0.00 | 0.00 | 0.00 | 89 | 1019.4 |
| 20260506081524 | 10 | 52 | 0.0 | 4.8 | 0.00 | 0.00 | 0.00 | 89 | 1019.4 |
| 20260506080504 | 10 | 27 | 0.0 | 3.2 | 0.00 | 0.00 | 0.00 | 88 | 1019.5 |
| 20260506073510 | 11 | 27 | 0.0 | 3.2 | 0.00 | 0.00 | 0.00 | 86 | 1019.5 |
| 20260506073018 | 11 | 27 | 0.0 | 3.2 | 0.00 | 0.00 | 0.00 | 86 | 1019.4 |
| 20260506071524 | 11 | 27 | 1.6 | 3.2 | 0.00 | 0.00 | 0.00 | 86 | 1019.4 |
| 20260506070507 | 11 | 23 | 0.0 | 3.2 | 0.00 | 0.00 | 0.00 | 86 | 1019.3 |
| 20260506061520 | 11 | 336 | 0.0 | 0.0 | 0.00 | 0.00 | 0.00 | 86 | 1019.1 |
| 20260506044525 | 12 | 336 | 0.0 | 3.2 | 0.00 | 0.00 | 0.00 | 85 | 1018.6 |
| 20260506043013 | 12 | 336 | 0.0 | 0.0 | 0.00 | 0.00 | 0.00 | 84 | 1018.6 |
| 20260506042504 | 12 | 336 | 0.0 | 0.0 | 0.00 | 0.00 | 0.00 | 84 | 1018.6 |
| 20260506041518 | 12 | 336 | 0.0 | 0.0 | 0.00 | 0.00 | 0.00 | 84 | 1018.6 |
| 20260506040021 | 12 | 336 | 0.0 | 0.0 | 0.00 | 0.00 | 0.00 | 84 | 1018.5 |
| 20260506035508 | 12 | 336 | 0.0 | 0.0 | 0.00 | 0.00 | 0.00 | 84 | 1018.3 |
| 20260506035008 | 12 | 336 | 0.0 | 0.0 | 0.00 | 0.00 | 0.00 | 84 | 1018.2 |
| 20260506034523 | 12 | 336 | 0.0 | 0.0 | 0.00 | 0.00 | 0.00 | 83 | 1018.1 |
| 20260506034009 | 12 | 336 | 0.0 | 0.0 | 0.00 | 0.00 | 0.00 | 83 | 1018.0 |
| 20260506033508 | 12 | 336 | 0.0 | 0.0 | 0.00 | 0.00 | 0.00 | 83 | 1017.9 |
| 20260506033026 | 12 | 336 | 0.0 | 1.6 | 0.00 | 0.00 | 0.00 | 83 | 1017.8 |
| 20260506032509 | 12 | 336 | 0.0 | 1.6 | 0.00 | 0.00 | 0.00 | 83 | 1017.7 |
| 20260506031513 | 12 | 336 | 0.0 | 3.2 | 0.00 | 0.00 | 0.00 | 82 | 1017.7 |
| 20260506030018 | 12 | 336 | 0.0 | 3.2 | 0.00 | 0.00 | 0.00 | 81 | 1017.4 |
| 20260506024521 | 12 | 261 | 1.6 | 4.8 | 0.00 | 0.00 | 0.00 | 79 | 1017.4 |
| 20260506024010 | 12 | 275 | 0.0 | 6.4 | 0.00 | 0.00 | 0.00 | 79 | 1017.5 |
| 20260506023507 | 13 | 360 | 1.6 | 6.4 | 0.00 | 0.00 | 0.00 | 78 | 1017.5 |
| 20260506023025 | 13 | 285 | 1.6 | 4.8 | 0.00 | 0.00 | 0.00 | 77 | 1017.5 |
| 20260506022508 | 13 | 271 | 1.6 | 4.8 | 0.00 | 0.00 | 0.00 | 76 | 1017.5 |
| 20260506020030 | 15 | 297 | 1.6 | 6.4 | 0.00 | 0.00 | 0.00 | 70 | 1017.4 |
| 20260506013023 | 15 | 275 | 1.6 | 6.4 | 0.00 | 0.00 | 0.00 | 67 | 1017.2 |
| 20260506005003 | 14 | 296 | 3.2 | 11.3 | 0.00 | 0.00 | 0.00 | 74 | 1017.1 |
| 20260506003508 | 14 | 310 | 0.0 | 6.4 | 0.00 | 0.00 | 0.00 | 74 | 1017.1 |
| 20260506003025 | 14 | 258 | 1.6 | 6.4 | 0.00 | 0.00 | 0.00 | 74 | 1017.1 |
| 20260506002011 | 14 | 279 | 1.6 | 9.7 | 0.00 | 0.00 | 0.00 | 75 | 1017.1 |
| 20260506001524 | 14 | 186 | 1.6 | 11.3 | 0.00 | 0.00 | 0.00 | 74 | 1017.0 |
| 20260506000504 | 14 | 277 | 1.6 | 6.4 | 0.00 | 0.00 | 0.00 | 75 | 1016.8 |
| 20260506000010 | 14 | 234 | 1.6 | 11.3 | 0.00 | 0.00 | 0.00 | 76 | 1016.8 |
| 20260505235504 | 14 | 222 | 4.8 | 11.3 | 0.00 | 0.00 | 0.00 | 75 | 1016.8 |
| 20260505233021 | 13 | 329 | 0.0 | 11.3 | 0.00 | 0.00 | 0.00 | 77 | 1016.8 |
| 20260505231529 | 13 | 215 | 4.8 | 16.1 | 0.00 | 0.00 | 0.00 | 78 | 1016.9 |
| 20260505230509 | 13 | 211 | 4.8 | 12.9 | 0.00 | 0.00 | 0.00 | 78 | 1016.8 |
| 20260505224514 | 14 | 223 | 6.4 | 17.7 | 0.00 | 0.00 | 0.00 | 78 | 1017.0 |
| 20260505223017 | 14 | 231 | 12.9 | 20.9 | 0.00 | 0.00 | 0.00 | 75 | 1017.1 |
| 20260505222013 | 14 | 282 | 9.7 | 17.7 | 0.00 | 0.00 | 0.00 | 76 | 1017.0 |
| 20260505215508 | 14 | 306 | 8.0 | 14.5 | 0.00 | 0.00 | 0.00 | 76 | 1017.0 |
| 20260505214003 | 13 | 242 | 8.0 | 16.1 | 0.00 | 0.00 | 0.00 | 75 | 1017.1 |
| 20260505211006 | 14 | 211 | 4.8 | 19.3 | 0.00 | 0.00 | 0.00 | 74 | 1017.2 |
| 20260505210025 | 14 | 217 | 11.3 | 16.1 | 0.00 | 0.00 | 0.00 | 73 | 1017.1 |
| 20260505204003 | 14 | 213 | 11.3 | 19.3 | 0.00 | 0.00 | 0.00 | 73 | 1017.1 |
| 20260505200508 | 13 | 230 | 9.7 | 17.7 | 0.00 | 0.00 | 0.00 | 75 | 1017.4 |
| 20260505195010 | 13 | 237 | 6.4 | 14.5 | 0.00 | 0.00 | 0.00 | 73 | 1017.4 |
| 20260505193027 | 13 | 220 | 6.4 | 14.5 | 0.00 | 0.00 | 0.00 | 75 | 1017.4 |
| 20260505192503 | 13 | 215 | 6.4 | 14.5 | 0.00 | 0.00 | 0.00 | 75 | 1017.4 |
| 20260505191006 | 13 | 221 | 3.2 | 11.3 | 0.00 | 0.00 | 0.00 | 74 | 1017.6 |
| 20260505190504 | 13 | 223 | 4.8 | 11.3 | 0.00 | 0.00 | 0.00 | 74 | 1017.6 |
| 20260505190021 | 13 | 234 | 3.2 | 11.3 | 0.00 | 0.00 | 0.00 | 74 | 1017.6 |
| 20260505185509 | 13 | 219 | 0.0 | 11.3 | 0.00 | 0.00 | 0.00 | 75 | 1017.6 |
| 20260505185009 | 13 | 223 | 4.8 | 9.7 | 0.00 | 0.00 | 0.00 | 76 | 1017.6 |
| 20260505184528 | 13 | 213 | 3.2 | 11.3 | 0.00 | 0.00 | 0.00 | 75 | 1017.6 |
| 20260505184006 | 13 | 223 | 1.6 | 11.3 | 0.00 | 0.00 | 0.00 | 74 | 1017.6 |
| 20260505183509 | 13 | 219 | 3.2 | 4.8 | 0.00 | 0.00 | 0.00 | 74 | 1017.6 |
| 20260505183024 | 13 | 275 | 0.0 | 4.8 | 0.00 | 0.00 | 0.00 | 75 | 1017.6 |
| 20260505182508 | 13 | 217 | 1.6 | 6.4 | 0.00 | 0.00 | 0.00 | 77 | 1017.5 |
| 20260505182018 | 13 | 232 | 0.0 | 6.4 | 0.00 | 0.00 | 0.00 | 77 | 1017.4 |
| 20260505180504 | 12 | 76 | 0.0 | 4.8 | 0.00 | 0.00 | 0.00 | 77 | 1017.4 |
| 20260505180019 | 12 | 244 | 0.0 | 4.8 | 0.00 | 0.00 | 0.00 | 78 | 1017.4 |
| 20260505175504 | 12 | 263 | 0.0 | 6.4 | 0.00 | 0.00 | 0.00 | 78 | 1017.4 |
| 20260505175009 | 12 | 284 | 3.2 | 6.4 | 0.00 | 0.00 | 0.00 | 78 | 1017.3 |
| 20260505174534 | 12 | 167 | 0.0 | 6.4 | 0.00 | 0.00 | 0.00 | 79 | 1017.2 |
| 20260505174010 | 12 | 279 | 3.2 | 6.4 | 0.00 | 0.00 | 0.00 | 78 | 1017.2 |
| 20260505173509 | 12 | 279 | 0.0 | 4.8 | 0.00 | 0.00 | 0.00 | 78 | 1017.2 |
| 20260505173025 | 12 | 279 | 1.6 | 4.8 | 0.00 | 0.00 | 0.00 | 78 | 1017.1 |
| 20260505172512 | 12 | 244 | 1.6 | 3.2 | 0.00 | 0.00 | 0.00 | 78 | 1017.1 |
| 20260505171517 | 12 | 229 | 0.0 | 3.2 | 0.00 | 0.00 | 0.00 | 1017.2 | |
| 20260505171005 | 12 | 263 | 1.6 | 4.8 | 0.00 | 0.00 | 0.00 | 1017.2 | |
| 20260505165002 | 12 | 238 | 1.6 | 6.4 | 0.00 | 0.00 | 0.00 | 74 | 1017.0 |
| 20260505163009 | 13 | 273 | 1.6 | 9.7 | 0.00 | 0.00 | 0.00 | 73 | 1016.7 |
| 20260505162003 | 12 | 207 | 3.2 | 4.8 | 0.00 | 0.00 | 0.00 | 72 | 1016.5 |
| 20260505161004 | 12 | 221 | 1.6 | 6.4 | 0.00 | 0.00 | 0.00 | 73 | 1016.5 |
| 20260505152003 | 11 | 170 | 0.0 | 3.2 | 0.00 | 0.00 | 0.00 | 80 | 1016.4 |
| 20260505151508 | 11 | 207 | 0.0 | 3.2 | 0.00 | 0.00 | 0.00 | 81 | 1016.4 |
| 20260505151003 | 11 | 207 | 0.0 | 3.2 | 0.00 | 0.00 | 0.00 | 81 | 1016.3 |
| 20260505150503 | 10 | 246 | 0.0 | 3.2 | 0.00 | 0.00 | 0.00 | 81 | 1016.4 |
| 20260505140503 | 8 | 126 | 0.0 | 6.4 | 0.00 | 0.00 | 0.00 | 85 | 1015.8 |
| 20260505125003 | 8 | 11 | 1.6 | 11.3 | 0.00 | 0.00 | 0.00 | 86 | 1015.7 |
| 20260505124513 | 8 | 25 | 4.8 | 6.4 | 0.00 | 0.00 | 0.00 | 86 | 1015.7 |
| 20260505124007 | 8 | 38 | 1.6 | 6.4 | 0.00 | 0.00 | 0.00 | 86 | 1015.7 |
| 20260505123506 | 8 | 16 | 1.6 | 8.0 | 0.00 | 0.00 | 0.00 | 86 | 1015.7 |
| 20260505122504 | 8 | 34 | 4.8 | 9.7 | 0.00 | 0.00 | 0.00 | 86 | 1015.7 |
| 20260505122009 | 8 | 9 | 1.6 | 4.8 | 0.00 | 0.00 | 0.00 | 86 | 1015.7 |
| 20260505120509 | 8 | 9 | 0.0 | 4.8 | 0.00 | 0.00 | 0.00 | 86 | 1015.6 |
| 20260505120007 | 8 | 336 | 0.0 | 6.4 | 0.00 | 0.00 | 0.00 | 86 | 1015.5 |
| 20260505115502 | 8 | 352 | 1.6 | 8.0 | 0.00 | 0.00 | 0.00 | 86 | 1015.5 |
| 20260505115002 | 8 | 38 | 3.2 | 8.0 | 0.00 | 0.00 | 0.00 | 86 | 1015.5 |
| 20260505114513 | 8 | 341 | 0.0 | 4.8 | 0.00 | 0.00 | 0.00 | 87 | 1015.5 |
| 20260505114003 | 8 | 331 | 1.6 | 4.8 | 0.00 | 0.00 | 0.00 | 87 | 1015.4 |
| 20260505113504 | 8 | 69 | 0.0 | 3.2 | 0.00 | 0.00 | 0.00 | 87 | 1015.5 |
| 20260505113017 | 8 | 335 | 0.0 | 4.8 | 0.00 | 0.00 | 0.00 | 87 | 1015.5 |
| 20260505112510 | 8 | 298 | 1.6 | 4.8 | 0.00 | 0.00 | 0.00 | 87 | 1015.5 |
| 20260505112007 | 8 | 9 | 0.0 | 3.2 | 0.00 | 0.00 | 0.00 | 87 | 1015.5 |
| 20260505111524 | 8 | 303 | 0.0 | 3.2 | 0.00 | 0.00 | 0.00 | 86 | 1015.4 |
| 20260505111008 | 8 | 303 | 0.0 | 3.2 | 0.00 | 0.00 | 0.00 | 86 | 1015.5 |
| 20260505110508 | 8 | 17 | 0.0 | 3.2 | 0.00 | 0.00 | 0.00 | 86 | 1015.5 |
| 20260505102007 | 8 | 54 | 1.6 | 4.8 | 0.00 | 0.00 | 0.00 | 88 | 1015.6 |
| 20260505101521 | 8 | 144 | 0.0 | 0.0 | 0.00 | 0.00 | 0.00 | 88 | 1015.5 |
| 20260505101009 | 8 | 144 | 0.0 | 3.2 | 0.00 | 0.00 | 0.00 | 88 | 1015.6 |
| 20260505100507 | 8 | 144 | 0.0 | 3.2 | 0.00 | 0.00 | 0.00 | 87 | 1015.7 |
| 20260505100023 | 8 | 144 | 0.0 | 1.6 | 0.00 | 0.00 | 0.00 | 87 | 1015.7 |
| 20260505095515 | 8 | 144 | 0.0 | 0.0 | 0.00 | 0.00 | 0.00 | 88 | 1015.7 |
| 20260505095014 | 8 | 144 | 0.0 | 3.2 | 0.00 | 0.00 | 0.00 | 88 | 1015.6 |
| 20260505094531 | 8 | 144 | 0.0 | 3.2 | 0.00 | 0.00 | 0.00 | 88 | 1015.7 |
| 20260505093505 | 8 | 32 | 0.0 | 1.6 | 0.00 | 0.00 | 0.00 | 88 | 1015.6 |
| 20260505093014 | 8 | 32 | 0.0 | 1.6 | 0.00 | 0.00 | 0.00 | 87 | 1015.7 |
| 20260505092505 | 8 | 63 | 0.0 | 3.2 | 0.00 | 0.00 | 0.00 | 87 | 1015.7 |
| 20260505092006 | 8 | 63 | 0.0 | 3.2 | 0.00 | 0.00 | 0.00 | 86 | 1015.7 |
| 20260505091513 | 8 | 63 | 0.0 | 3.2 | 0.00 | 0.00 | 0.00 | 86 | 1015.8 |
| 20260505091007 | 8 | 63 | 0.0 | 3.2 | 0.00 | 0.00 | 0.00 | 86 | 1015.7 |
| 20260505090507 | 8 | 63 | 0.0 | 3.2 | 0.00 | 0.00 | 0.00 | 86 | 1015.8 |
| 20260505090022 | 8 | 63 | 0.0 | 3.2 | 0.00 | 0.00 | 0.00 | 86 | 1015.8 |
| 20260505085507 | 9 | 63 | 0.0 | 4.8 | 0.00 | 0.00 | 0.00 | 86 | 1015.9 |
| 20260505085007 | 9 | 171 | 0.0 | 4.8 | 0.00 | 0.00 | 0.00 | 86 | 1015.9 |